Showing default

TJS-5, 44978

Orbit data source: Space-Track

TJS-5, 44978 is a payload satellite owned by CASC (CN) in GEO that was launched on Tue, 07 Jan 2020 UTC via a CHANG ZHENG 3B launch vehicle from the Xichang Space Center, China (XSC). Payload-class satellites include a variety of spacecraft equipped with specific instruments for various scientific and technological missions. These include communications satellites like Starlink; space stations such as the ISS; scientific satellites like the Hubble; Earth observation satellites from companies like Planet Labs, Umbra, and HawkEye 360; GPS; miniature CubeSats for education and research; and military/defense satellites.

Not visible in the next 10 days
Identifier
44978, 2020-002A
Orbit
GEO
Country
Flag of CNCN / PRC
Related business
Manufacturer
SISE
Mission
Operational Defense Early Warn
Bus & Motor
FY-4?, Unknown motor
Mass
~4,000 kg wet, ~2,500 kg dry
Launch date (UTC)
2020-01-07 (6 years ago)
Launch vehicle
CHANG ZHENG 3B
Launch site
Xichang Space Center, China (XSC)
Object type
Payload
Rocket body
Debris
Shape & HBR
Box + 2 Pan, 15.0 m
Radar Cross Section
34.063 m², Large (>1 m²)

Expand to show TLE details & history
Last TLE update: 21 hours ago

TLE from 21 hours ago
0 TJS-5
1 44978U 20002A   26145.53377181 -.00000343  00000-0  00000+0 0  9999
2 44978   0.0647 275.3747 0007045 125.5246 141.9047  1.00270472 23483
Epoch: 2026-05-25T12:48Z
TLE epoch observation values (Epoch: 2026-05-25T12:48:37.884Z)
Latitude
-0.08271°
Longitude
107.57817°
Altitude
35,809.888 km
Speed
3.073 km/s
True Right ascension
12h 11m 25s
True Declination
0° 04' 57"
Sunlit
Object was in daylight at epoch
Visualization orbit readout
Latitude
Unknown
Longitude
Unknown
Altitude
Unknown
Speed
Unknown
Apparent Right ascension
Unknown
Apparent Declination
Unknown
Sunlit
N/A
Visualization observer readout
Local Sidereal Time
19:06:52
Azimuth
Unknown
Elevation
Unknown
Doppler factor
Unknown
Orbital elements
Apogee altitude
35,817.739 km
Perigee altitude
35,758.327 km
Semi-major axis
42,166.17 km
Eccentricity
0.0007
Inclination
0.0647°
RAAN
275.3747°
Arg. of periapsis
125.5246°
True anomaly
141.95447°
Mean anomaly
141.9047°
Eccentric anomaly
141.92959°
Mean motion
0.25067 °/min
Orbital period
1,436.17 mins
BSTAR
0
Loading maneuver chart data...
Computing Atmospheric mass density...
Loading historical data...
Loading historical data...
Loading historical data...
Loading historical data...
Loading historical data...
Loading historical data...
Loading historical data...
Other satellites on launch #2 in the year 2020 (2020-01-07 UTC)

Documentation

Showing up to 5 results
|